Location: Asheville, NC
(35.6000°N, 82.5500°W)
Time: 18:01:22
(UTC-04:00)

Vanguard 2 Rocket - Pass Details

Date: 12 December 2017
Orbit: 553 x 3327 km, 32.9° (Epoch: 16 July)

Event Time Altitude Azimuth Distance (km) Brightness Sun altitude
Rises 16:25:36 0° 174° (S) 4,262 10.8 8.1°
Reaches altitude 10° 16:31:01 10° 145° (SE) 3,918 10.2 7.2°
Maximum altitude 16:34:28 12° 125° (SE) 4,136 10.1 6.6°
Drops below altitude 10° 16:38:27 10° 107° (ESE) 4,708 10.2 6.0°
Sets 16:47:02 0° 82° (E) 6,467 10.7 4.5°
